H1 CPF 2 NER 2024 1 13 9 013 01 glonass141 H2 1908801 9141 44850 2024 1 13 0 0 0 2024 1 16 23 45 0 900 1 1 0 0 0 1 H9 10 0 60322 0.00000 0 15102187.136 -10531077.313 -17634828.089 10 0 60322 900.00000 0 17089386.938 -11023036.556 -15381877.701 10 0 60322 1800.00000 0 18747927.087 -11587388.319 -12829797.589 10 0 60322 2700.00000 0 20046809.931 -12170423.692 -10028316.671 10 0 60322 3600.00000 0 20967811.374 -12714928.958 -7031973.731 10 0 60322 4500.00000 0 21506038.128 -13162767.437 -3899048.271 10 0 60322 5400.00000 0 21669938.609 -13457510.255 -690421.479 10 0 60322 6300.00000 0 21480769.236 -13547004.463 2531609.939 10 0 60322 7200.00000 0 20971540.607 -13385769.879 5704543.532 10 0 60322 8100.00000 0 20185489.700 -12937123.585 8766880.735 10 0 60322 9000.00000 0 19174143.958 -12174942.880 11659313.039 10 0 60322 9900.00000 0 17995059.598 -11084992.797 14325861.953 10 0 60322 10800.00000 0 16709329.692 -9665762.722 16714951.408 10 0 60322 11700.00000 0 15378966.718 -7928777.275 18780392.903 10 0 60322 12600.00000 0 14064268.809 -5898368.342 20482265.504 10 0 60322 13500.00000 0 12821279.128 -3610917.389 21787675.090 10 0 60322 14400.00000 0 11699443.483 -1113598.773 22671379.552 10 0 60322 15300.00000 0 10739562.756 1537324.914 23116269.054 10 0 60322 16200.00000 0 9972124.445 4278586.320 23113693.069 10 0 60322 17100.00000 0 9416081.890 7042291.118 22663628.445 10 0 60322 18000.00000 0 9078131.469 9758493.590 21774685.342 10 0 60322 18900.00000 0 8952517.620 12357865.342 20463950.545 10 0 60322 19800.00000 0 9021374.018 14774348.461 18756670.296 10 0 60322 20700.00000 0 9255587.144 16947684.599 16685777.536 10 0 60322 21600.00000 0 9616146.980 18825716.094 14291271.139 10 0 60322 22500.00000 0 10055929.145 20366364.086 11619457.485 10 0 60322 23400.00000 0 10521834.599 21539201.252 8722067.474 10 0 60322 24300.00000 0 10957197.645 22326553.195 5655264.677 10 0 60322 25200.00000 0 11304361.130 22724081.660 2478562.785 10 0 60322 26100.00000 0 11507310.099 22740824.195 -746327.207 10 0 60322 27000.00000 0 11514251.946 22398687.627 -3956697.824 10 0 60322 27900.00000 0 11280032.808 21731415.762 -7090070.263 10 0 60322 28800.00000 0 10768286.260 20783074.166 -10085419.246 10 0 60322 29700.00000 0 9953221.421 19606115.640 -12884372.646 10 0 60322 30600.00000 0 8820972.545 18259108.049 -15432361.290 10 0 60322 31500.00000 0 7370450.820 16804220.859 -17679695.173 10 0 60322 32400.00000 0 5613660.224 15304577.162 -19582543.899 10 0 60322 33300.00000 0 3575462.199 13821583.758 -21103801.190 10 0 60322 34200.00000 0 1292797.482 12412352.815 -22213815.790 10 0 60322 35100.00000 0 -1186603.359 11127324.547 -22890974.043 10 0 60322 36000.00000 0 -3805967.404 10008191.586 -23122122.564 10 0 60322 36900.00000 0 -6501612.015 9086212.627 -22902822.811 10 0 60322 37800.00000 0 -9205373.576 8380986.105 -22237432.879 10 0 60322 38700.00000 0 -11847230.770 7899734.861 -21139015.351 10 0 60322 39600.00000 0 -14358012.707 7637130.864 -19629073.546 10 0 60322 40500.00000 0 -16672078.781 7575665.985 -17737121.944 10 0 60322 41400.00000 0 -18729858.483 7686551.597 -15500099.827 10 0 60322 42300.00000 0 -20480145.461 7931107.313 -12961640.282 10 0 60322 43200.00000 0 -21882050.631 8262578.564 -10171209.580 10 0 60322 44100.00000 0 -22906533.728 8628304.603 -7183134.391 10 0 60322 45000.00000 0 -23537450.535 8972143.947 -4055536.615 10 0 60322 45900.00000 0 -23772073.601 9237053.590 -849197.209 10 0 60322 46800.00000 0 -23621066.461 9367712.177 2373628.255 10 0 60322 47700.00000 0 -23107914.338 9313075.784 5550418.775 10 0 60322 48600.00000 0 -22267837.137 9028758.253 8619598.169 10 0 60322 49500.00000 0 -21146231.942 8479135.745 11521722.940 10 0 60322 50400.00000 0 -19796711.531 7639087.088 14200625.018 10 0 60322 51300.00000 0 -18278822.091 6495297.082 16604487.997 10 0 60322 52200.00000 0 -16655535.826 5047068.189 18686836.954 10 0 60322 53100.00000 0 -14990623.268 3306606.657 20407423.977 10 0 60322 54000.00000 0 -13346014.500 1298770.941 21732993.659 10 0 60322 54900.00000 0 -11779258.194 -939707.898 22637915.144 10 0 60322 55800.00000 0 -10341183.230 -3361502.353 23104669.725 10 0 60322 56700.00000 0 -9073858.907 -5910409.652 23124185.557 10 0 60322 57600.00000 0 -8008937.418 -8523448.367 22696013.641 10 0 60322 58500.00000 0 -7166446.561 -11133245.431 21828341.766 10 0 60322 59400.00000 0 -6554082.258 -13670616.718 20537845.788 10 0 60322 60300.00000 0 -6167030.048 -16067236.115 18849380.258 10 0 60322 61200.00000 0 -5988323.096 -18258284.016 16795513.153 10 0 60322 62100.00000 0 -5989722.151 -20184966.495 14415912.151 10 0 60322 63000.00000 0 -6133081.300 -21796801.142 11756592.700 10 0 60322 63900.00000 0 -6372142.908 -23053574.523 8869040.811 10 0 60322 64800.00000 0 -6654687.014 -23926889.212 5809226.170 10 0 60322 65700.00000 0 -6924945.042 -24401234.982 2636523.610 10 0 60322 66600.00000 0 -7126176.050 -24474538.146 -587436.730 10 0 60322 67500.00000 0 -7203296.265 -24158164.797 -3799968.385 10 0 60322 68400.00000 0 -7105449.723 -23476376.618 -6938553.066 10 0 60322 69300.00000 0 -6788409.821 -22465261.165 -9942066.071 10 0 60322 70200.00000 0 -6216708.282 -21171180.974 -12751977.710 10 0 60322 71100.00000 0 -5365399.302 -19648806.556 -15313506.089 10 0 60322 72000.00000 0 -4221382.042 -17958816.261 -17576697.457 10 0 60322 72900.00000 0 -2784223.369 -16165360.346 -19497411.835 10 0 60322 73800.00000 0 -1066444.048 -14333396.766 -21038193.670 10 0 60322 74700.00000 0 906745.381 -12526011.608 -22169009.711 10 0 60322 75600.00000 0 3098249.368 -10801837.667 -22867839.226 10 0 60322 76500.00000 0 5460399.923 -9212680.232 -23121104.824 10 0 60322 77400.00000 0 7936722.565 -7801450.129 -22923935.506 10 0 60322 78300.00000 0 10464081.921 -6600490.706 -22280257.090 10 0 60322 79200.00000 0 12975117.242 -5630368.408 -21202708.631 10 0 60322 80100.00000 0 15400865.816 -4899176.747 -19712387.029 10 0 60322 81000.00000 0 17673464.443 -4402381.448 -17838425.410 10 0 60322 81900.00000 0 19728815.976 -4123211.523 -15617414.175 10 0 60322 82800.00000 0 21509109.460 -4033577.838 -13092676.718 10 0 60322 83700.00000 0 22965088.838 -4095478.386 -10313414.706 10 0 60322 84600.00000 0 24057975.899 -4262829.004 -7333740.308 10 0 60322 85500.00000 0 24760967.896 -4483640.393 -4211615.007 10 0 60323 0.00000 0 25060248.358 -4702447.916 -1007716.668 10 0 60323 900.00000 0 24955470.320 -4862890.368 2215744.237 10 0 60323 1800.00000 0 24459693.005 -4910327.642 5396231.406 10 0 60323 2700.00000 0 23598776.914 -4794386.645 8472094.572 10 0 60323 3600.00000 0 22410263.668 -4471327.587 11383758.674 10 0 60323 4500.00000 0 20941789.114 -3906131.135 14074869.322 10 0 60323 5400.00000 0 19249096.931 -3074218.843 16493372.721 10 0 60323 6300.00000 0 17393736.255 -1962734.766 18592510.176 10 0 60323 7200.00000 0 15440539.564 -571334.751 20331709.124 10 0 60323 8100.00000 0 13454985.448 1087549.792 21677354.845 10 0 60323 9000.00000 0 11500555.212 2988985.056 22603429.337 10 0 60323 9900.00000 0 9636192.133 5096334.399 23092006.222 10 0 60323 10800.00000 0 7913967.475 7362552.333 23133593.130 10 0 60323 11700.00000 0 6377048.901 9731920.791 22727315.570 10 0 60323 12600.00000 0 5058054.382 12142157.464 21880938.859 10 0 60323 13500.00000 0 3977858.988 14526810.738 20610727.378 10 0 60323 14400.00000 0 3144903.475 16817843.853 18941143.007 10 0 60323 15300.00000 0 2555033.180 18948302.711 16904387.363 10 0 60323 16200.00000 0 2191873.975 20854957.883 14539795.184 10 0 60323 17100.00000 0 2027729.904 22480811.772 11893088.895 10 0 60323 18000.00000 0 2024965.407 23777366.758 9015507.239 10 0 60323 18900.00000 0 2137814.659 24706559.393 5962823.383 10 0 60323 19800.00000 0 2314542.277 25242279.020 2794270.449 10 0 60323 20700.00000 0 2499864.490 25371405.999 -428605.286 10 0 60323 21600.00000 0 2637528.247 25094324.593 -3643141.458 10 0 60323 22500.00000 0 2672938.540 24424887.504 -6786783.378 10 0 60323 23400.00000 0 2555721.567 23389832.173 -9798309.923 10 0 60323 24300.00000 0 2242113.644 22027672.315 -12619036.676 10 0 60323 25200.00000 0 1697072.800 20387110.596 -15193971.639 10 0 60323 26100.00000 0 896021.575 18525038.983 -17472899.672 10 0 60323 27000.00000 0 -173854.816 16504210.939 -19411373.307 10 0 60323 27900.00000 0 -1512811.871 14390683.808 -20971589.539 10 0 60323 28800.00000 0 -3108286.186 12251139.480 -22123134.681 10 0 60323 29700.00000 0 -4935185.268 10150196.560 -22843582.208 10 0 60323 30600.00000 0 -6956715.769 8147827.392 -23118931.708 10 0 60323 31500.00000 0 -9125716.056 6296988.677 -22943880.386 10 0 60323 32400.00000 0 -11386437.622 4641564.974 -22321922.051 10 0 60323 33300.00000 0 -13676700.755 3214710.855 -21265272.093 10 0 60323 34200.00000 0 -15930334.024 2037660.303 -19794620.426 10 0 60323 35100.00000 0 -18079795.193 1119051.927 -17938717.835 10 0 60323 36000.00000 0 -20058863.623 454796.505 -15733804.477 10 0 60323 36900.00000 0 -21805291.210 28490.384 -13222892.377 10 0 60323 37800.00000 0 -23263300.913 -187644.953 -10454916.681 10 0 60323 38700.00000 0 -24385828.445 -231338.984 -7483772.941 10 0 60323 39600.00000 0 -25136413.722 -148426.161 -4367259.973 10 0 60323 40500.00000 0 -25490663.662 9342.321 -1165949.586 10 0 60323 41400.00000 0 -25437226.015 186734.977 2057994.193 10 0 60323 42300.00000 0 -24978234.814 327620.546 5242022.953 10 0 60323 43200.00000 0 -24129210.154 377582.785 8324415.088 10 0 60323 44100.00000 0 -22918417.832 286458.818 11245466.822 10 0 60323 45000.00000 0 -21385716.964 10693.905 13948640.318 10 0 60323 45900.00000 0 -19580944.598 -484586.302 16381647.252 10 0 60323 46800.00000 0 -17561905.391 -1223872.873 18497447.887 10 0 60323 47700.00000 0 -15392050.359 -2220011.279 20255147.513 10 0 60323 48600.00000 0 -13137940.981 -3473432.340 21620774.307 10 0 60323 49500.00000 0 -10866603.356 -4971908.815 22567924.967 10 0 60323 50400.00000 0 -8642881.106 -6690848.300 23078266.882 10 0 60323 51300.00000 0 -6526895.489 -8594111.214 23141888.162 10 0 60323 52200.00000 0 -4571716.563 -10635321.219 22757489.399 10 0 60323 53100.00000 0 -2821340.530 -12759615.269 21932413.613 10 0 60323 54000.00000 0 -1309055.885 -14905762.488 20682513.484 10 0 60323 54900.00000 0 -56265.228 -17008565.802 19031857.622 10 0 60323 55800.00000 0 928188.913 -19001448.287 17012280.337 10 0 60323 56700.00000 0 1648166.403 -20819118.168 14662782.119 10 0 60323 57600.00000 0 2119834.006 -22400202.541 12028790.752 10 0 60323 58500.00000 0 2370748.245 -23689740.452 9161295.789 10 0 60323 59400.00000 0 2438454.706 -24641431.115 6115871.701 10 0 60323 60300.00000 0 2368662.202 -25219542.519 2951607.522 10 0 60323 61200.00000 0 2213068.505 -25400399.258 -270036.889 10 0 60323 62100.00000 0 2026929.447 -25173385.667 -3486425.954 10 0 60323 63000.00000 0 1866474.594 -24541420.388 -6634971.381 10 0 60323 63900.00000 0 1786279.741 -23520880.735 -9654358.503 10 0 60323 64800.00000 0 1836708.765 -22140978.530 -12485751.100 10 0 60323 65700.00000 0 2061534.830 -20442612.488 -15073949.994 10 0 60323 66600.00000 0 2495843.567 -18476744.633 -17368481.510 10 0 60323 67500.00000 0 3164308.941 -16302368.681 -19324593.384 10 0 60323 68400.00000 0 4079916.688 -13984155.763 -20904137.607 10 0 60323 69300.00000 0 5243191.031 -11589876.696 -22076322.168 10 0 60323 70200.00000 0 6641958.822 -9187709.439 -22818316.476 10 0 60323 71100.00000 0 8251662.258 -6843545.075 -23115698.411 10 0 60323 72000.00000 0 10036207.826 -4618405.581 -22962734.267 10 0 60323 72900.00000 0 11949316.234 -2566081.575 -22362486.342 10 0 60323 73800.00000 0 13936316.806 -731088.638 -21326746.490 10 0 60323 74700.00000 0 15936310.845 852972.979 -19875797.420 10 0 60323 75600.00000 0 17884612.952 2164587.735 -18038007.031 10 0 60323 76500.00000 0 19715367.491 3194975.981 -15849264.335 10 0 60323 77400.00000 0 21364230.121 3948201.572 -13352268.720 10 0 60323 78300.00000 0 22771001.635 4440733.757 -10595687.151 10 0 60323 79200.00000 0 23882103.592 4700484.179 -7633196.507 10 0 60323 80100.00000 0 24652792.022 4765361.954 -4522430.498 10 0 60323 81000.00000 0 25049016.764 4681410.014 -1323852.420 10 0 60323 81900.00000 0 25048849.166 4500603.308 1900423.730 10 0 60323 82800.00000 0 24643419.226 4278403.397 5087840.321 10 0 60323 83700.00000 0 23837323.869 4071173.782 8176607.596 10 0 60323 84600.00000 0 22648490.624 3933565.794 11106896.230 10 0 60323 85500.00000 0 21107503.274 3915985.448 13821987.994 10 0 60324 0.00000 0 19256418.675 4062247.906 16269362.709 10 0 60324 900.00000 0 17147123.813 4407517.999 18401702.726 10 0 60324 1800.00000 0 14839304.092 4976622.686 20177793.423 10 0 60324 2700.00000 0 12398103.951 5782806.072 21563308.077 10 0 60324 3600.00000 0 9891578.635 6826978.804 22531460.003 10 0 60324 4500.00000 0 7388040.792 8097493.421 23063511.946 10 0 60324 5400.00000 0 4953410.643 9570455.604 23149133.706 10 0 60324 6300.00000 0 2648677.902 11210559.383 22786601.746 10 0 60324 7200.00000 0 527579.013 12972412.877 21982837.099 10 0 60324 8100.00000 0 -1365415.556 14802301.126 20753280.564 10 0 60324 9000.00000 0 -2996721.741 16640314.485 19121606.800 10 0 60324 9900.00000 0 -4344803.606 18422755.779 17119281.656 10 0 60324 10800.00000 0 -5400828.605 20084727.579 14784969.789 10 0 60324 11700.00000 0 -6168789.192 21562792.906 12163802.382 10 0 60324 12600.00000 0 -6665085.564 22797598.976 9306517.526 10 0 60324 13500.00000 0 -6917586.659 23736354.370 6268488.462 10 0 60324 14400.00000 0 -6964208.442 24335055.400 3108657.379 10 0 60324 15300.00000 0 -6851068.952 24560367.196 -111605.196 10 0 60324 16200.00000 0 -6630297.837 24391079.023 -3329693.502 10 0 60324 17100.00000 0 -6357593.078 23819070.824 -6482988.716 10 0 60324 18000.00000 0 -6089628.873 22849748.410 -9510085.676 10 0 60324 18900.00000 0 -5881425.398 21501927.133 -12351999.309 10 0 60324 19800.00000 0 -5783793.174 19807167.317 -14953326.041 10 0 60324 20700.00000 0 -5840961.927 17808588.152 -17263336.236 10 0 60324 21600.00000 0 -6088496.065 15559209.072 -19236975.158 10 0 60324 22500.00000 0 -6551586.773 13119887.871 -20835751.862 10 0 60324 23400.00000 0 -7243794.605 10556942.059 -22028497.803 10 0 60324 24300.00000 0 -8166297.120 7939553.400 -22791979.821 10 0 60324 25200.00000 0 -9307674.445 5337064.702 -23111355.260 10 0 60324 26100.00000 0 -10644242.610 2816282.342 -22980460.312 10 0 60324 27000.00000 0 -12140921.036 438897.523 -22401926.171 10 0 60324 27900.00000 0 -13752597.798 -1740866.065 -21387121.116 10 0 60324 28800.00000 0 -15425935.033 -3678280.296 -19955920.160 10 0 60324 29700.00000 0 -17101538.267 -5339732.543 -18136307.366 10 0 60324 30600.00000 0 -18716397.950 -6703871.127 -15963819.245 10 0 60324 31500.00000 0 -20206500.067 -7762230.127 -13480840.835 10 0 60324 32400.00000 0 -21509495.668 -8519309.543 -10735768.924 10 0 60324 33300.00000 0 -22567316.767 -8992109.893 -7782059.500 10 0 60324 34200.00000 0 -23328628.561 -9209143.293 -4677178.787 10 0 60324 35100.00000 0 -23751015.020 -9208965.127 -1481479.038 10 0 60324 36000.00000 0 -23802806.408 -9038290.422 1742978.434 10 0 60324 36900.00000 0 -23464472.564 -8749776.240 4933629.514 10 0 60324 37800.00000 0 -22729524.307 -8399565.151 8028619.170 10 0 60324 38700.00000 0 -21604886.069 -8044694.358 10967995.438 10 0 60324 39600.00000 0 -20110724.933 -7740480.191 13694862.602 10 0 60324 40500.00000 0 -18279744.095 -7537988.231 16156471.909 10 0 60324 41400.00000 0 -16155970.535 -7481695.153 18305229.626 10 0 60324 42300.00000 0 -13793087.628 -7607440.091 20099604.137 10 0 60324 43200.00000 0 -11252381.936 -7940750.896 21504915.961 10 0 60324 44100.00000 0 -8600388.547 -8495614.879 22493996.778 10 0 60324 45000.00000 0 -5906331.639 -9273745.263 23047706.014 10 0 60324 45900.00000 0 -3239464.850 -10264374.051 23155296.055 10 0 60324 46800.00000 0 -666419.857 -11444580.568 22814619.704 10 0 60324 47700.00000 0 1751328.737 -12780142.916 22032176.085 10 0 60324 48600.00000 0 3959778.946 -14226878.216 20822993.816 10 0 60324 49500.00000 0 5914402.854 -15732417.413 19210352.958 10 0 60324 50400.00000 0 7581752.069 -17238342.326 17225349.903 10 0 60324 51300.00000 0 8940601.199 -18682597.419 14906312.144 10 0 60324 52200.00000 0 9982582.080 -20002076.911 12298072.600 10 0 60324 53100.00000 0 10712282.263 -21135279.940 9451115.903 10 0 60324 54000.00000 0 11146803.361 -22024922.968 6420611.766 10 0 60324 54900.00000 0 11314797.370 -22620399.610 3265352.988 10 0 60324 55800.00000 0 11255021.026 -22879983.727 46618.020 10 0 60324 56700.00000 0 11014468.843 -22772681.782 -3173020.064 10 0 60324 57600.00000 0 10646163.584 -22279654.685 -6330914.845 10 0 60324 58500.00000 0 10206697.872 -21395147.233 -9365573.611 10 0 60324 59400.00000 0 9753631.656 -20126883.897 -12217865.346 10 0 60324 60300.00000 0 9342856.726 -18495912.311 -14832184.901 10 0 60324 61200.00000 0 9026041.250 -16535899.372 -17157549.367 10 0 60324 62100.00000 0 8848264.002 -14291908.240 -19148604.025 10 0 60324 63000.00000 0 8845939.999 -11818706.727 -20766517.207 10 0 60324 63900.00000 0 9045126.759 -9178677.612 -21979745.710 10 0 60324 64800.00000 0 9460284.071 -6439418.385 -22764655.283 10 0 60324 65700.00000 0 10093540.668 -3671130.986 -23105983.795 10 0 60324 66600.00000 0 10934499.443 -943911.041 -22997137.958 10 0 60324 67500.00000 0 11960589.724 1674949.975 -22440318.079 10 0 60324 68400.00000 0 13137951.810 4123536.898 -21446468.693 10 0 60324 69300.00000 0 14422816.156 6347650.206 -20035056.598 10 0 60324 70200.00000 0 15763318.644 8302815.436 -18233681.173 10 0 60324 71100.00000 0 17101674.828 9955879.849 -16077525.277 10 0 60324 72000.00000 0 18376620.889 11286131.030 -13608658.123 10 0 60324 72900.00000 0 19526017.813 12285892.548 -10875204.538 10 0 60324 73800.00000 0 20489508.585 12960573.982 -7930397.526 10 0 60324 74700.00000 0 21211116.094 13328175.622 -4831533.456 10 0 60324 75600.00000 0 21641672.228 13418271.207 -1638850.924 10 0 60324 76500.00000 0 21740976.003 13270513.911 1585644.205 10 0 60324 77400.00000 0 21479590.248 12932730.605 4779384.196 10 0 60324 78300.00000 0 20840201.914 12458686.524 7880451.595 10 0 60324 79200.00000 0 19818489.521 11905615.797 10828774.602 10 0 60324 80100.00000 0 18423462.056 11331622.636 13567282.718 10 0 60324 81000.00000 0 16677255.702 10793062.854 16043000.943 10 0 60324 81900.00000 0 14614397.206 10342015.648 18208062.262 10 0 60324 82800.00000 0 12280564.777 10023951.384 20020620.027 10 0 60324 83700.00000 0 9730897.754 9875692.510 21445643.980 10 0 60324 84600.00000 0 7027924.551 9923752.261 22455585.914 10 0 60324 85500.00000 0 4239193.807 10183120.066 23030903.420 10 0 60325 0.00000 0 1434705.535 10656543.986 23160432.635 10 0 60325 900.00000 0 -1315754.515 11334340.507 22841603.497 10 0 60325 1800.00000 0 -3945265.076 12194739.396 22080493.518 10 0 60325 2700.00000 0 -6392301.264 13204750.977 20891718.996 10 0 60325 3600.00000 0 -8603041.204 14321520.313 19298164.756 10 0 60325 4500.00000 0 -10533354.526 15494113.424 17330556.626 10 0 60325 5400.00000 0 -12150390.871 16665662.418 15026883.400 10 0 60325 6300.00000 0 -13433702.802 17775781.205 12431677.823 10 0 60325 7200.00000 0 -14375856.403 18763151.684 9595168.879 10 0 60325 8100.00000 0 -14982503.771 19568172.549 6572320.349 10 0 60325 9000.00000 0 -15271913.962 20135559.511 3421773.069 10 0 60325 9900.00000 0 -15273981.491 20416786.976 204710.728 10 0 60325 10800.00000 0 -15028753.675 20372267.224 -3016329.065 10 0 60325 11700.00000 0 -14584538.624 19973173.618 -6178675.128 10 0 60325 12600.00000 0 -13995673.823 19202828.910 -9220750.054 10 0 60325 13500.00000 0 -13320050.000 18057597.955 -12083279.696 10 0 60325 14400.00000 0 -12616495.781 16547244.965 -14710460.059 10 0 60325 15300.00000 0 -11942134.867 14694738.247 -17051057.521 10 0 60325 16200.00000 0 -11349828.813 12535508.906 -19059419.744 10 0 60325 17100.00000 0 -10885814.943 10116193.334 -20696376.443 10 0 60325 18000.00000 0 -10587640.604 7492911.400 -21930011.586 10 0 60325 18900.00000 0 -10482482.194 4729152.027 -22736291.353 10 0 60325 19800.00000 0 -10585920.840 1893354.515 -23099535.306 10 0 60325 20700.00000 0 -10901226.962 -943713.143 -23012721.486 10 0 60325 21600.00000 0 -11419184.086 -3711669.250 -22477619.692 10 0 60325 22500.00000 0 -12118459.173 -6343213.251 -21504750.667 10 0 60325 23400.00000 0 -12966503.370 -8776687.979 -20113172.482 10 0 60325 24300.00000 0 -13920944.488 -10958402.728 -18330098.887 10 0 60325 25200.00000 0 -14931411.617 -12844620.907 -16190357.718 10 0 60325 26100.00000 0 -15941713.956 -14403130.337 -13735700.657 10 0 60325 27000.00000 0 -16892281.052 -15614332.118 -11013978.573 10 0 60325 27900.00000 0 -17722760.676 -16471804.441 -8078199.288 10 0 60325 28800.00000 0 -18374664.075 -16982319.902 -4985486.948 10 0 60325 29700.00000 0 -18793946.625 -17165318.051 -1795964.026 10 0 60325 30600.00000 0 -18933414.838 -17051857.668 1428421.622 10 0 60325 31500.00000 0 -18754858.429 -16683095.203 4625101.288 10 0 60325 32400.00000 0 -18230817.970 -16108355.340 7732097.822 10 0 60325 33300.00000 0 -17345914.187 -15382876.422 10689222.357 10 0 60325 34200.00000 0 -16097683.723 -14565326.735 13439232.392 10 0 60325 35100.00000 0 -14496886.657 -13715196.543 15928929.404 10 0 60325 36000.00000 0 -12567273.263 -12890175.497 18110175.683 10 0 60325 36900.00000 0 -10344819.818 -12143625.131 19940811.919 10 0 60325 37800.00000 0 -7876464.970 -11522251.639 21385459.156 10 0 60325 38700.00000 0 -5218398.520 -11064075.458 22416191.055 10 0 60325 39600.00000 0 -2433972.501 -10796781.651 23013064.731 10 0 60325 40500.00000 0 408680.320 -10736519.243 23164501.019 10 0 60325 41400.00000 0 3239223.700 -10887199.192 22867507.523 10 0 60325 42300.00000 0 5987786.127 -11240320.227 22127740.404 10 0 60325 43200.00000 0 8587611.511 -11775330.172 20959403.477 10 0 60325 44100.00000 0 10977584.368 -12460508.472 19384985.825 10 0 60325 45000.00000 0 13104526.305 -13254334.128 17434841.852 10 0 60325 45900.00000 0 14925169.581 -14107283.134 15146620.449 10 0 60325 46800.00000 0 16407726.339 -14963981.465 12564552.605 10 0 60325 47700.00000 0 17532988.285 -15765624.449 9738609.702 10 0 60325 48600.00000 0 18294910.687 -16452561.715 6723547.252 10 0 60325 49500.00000 0 18700655.768 -16966939.315 3577851.466 10 0 60325 50400.00000 0 18770092.977 -17255287.449 362608.324 10 0 60325 51300.00000 0 18534776.516 -17270943.855 -2859683.152 10 0 60325 52200.00000 0 18036442.631 -16976209.169 -6026330.228 10 0 60325 53100.00000 0 17325089.803 -16344141.399 -9075673.996 10 0 60325 54000.00000 0 16456722.962 -15359911.574 -11948300.287 10 0 60325 54900.00000 0 15490857.475 -14021661.063 -14588209.202 10 0 60325 55800.00000 0 14487889.195 -12340822.129 -16943919.148 10 0 60325 56700.00000 0 13506442.749 -10341886.197 -18969482.639 10 0 60325 57600.00000 0 12600811.288 -8061627.833 -20625392.945 10 0 60325 58500.00000 0 11818597.047 -5547815.769 -21879363.008 10 0 60325 59400.00000 0 11198653.337 -2857464.161 -22706960.841 10 0 60325 60300.00000 0 10769415.630 -54696.834 -23092088.654 10 0 60325 61200.00000 0 10547692.573 2791686.272 -23027296.317 10 0 60325 62100.00000 0 10537967.977 5610838.690 -22513923.168 10 0 60325 63000.00000 0 10732242.911 8332583.188 -21562065.761 10 0 60325 63900.00000 0 11110423.858 10890100.204 -20190372.647 10 0 60325 64800.00000 0 11641239.635 13222476.908 -18425670.773 10 0 60325 65700.00000 0 12283647.233 15277010.905 -16302431.442 10 0 60325 66600.00000 0 12988666.005 17011173.074 -13862086.962 10 0 60325 67500.00000 0 13701561.520 18394148.695 -11152212.111 10 0 60325 68400.00000 0 14364285.722 19407893.956 -8225587.110 10 0 60325 69300.00000 0 14918069.343 20047665.447 -5139161.250 10 0 60325 70200.00000 0 15306056.346 20322002.642 -1952938.068 10 0 60325 71100.00000 0 15475868.700 20252166.369 1271195.507 10 0 60325 72000.00000 0 15381993.059 19871059.097 4470672.730 10 0 60325 72900.00000 0 14987888.746 19221674.457 7583459.595 10 0 60325 73800.00000 0 14267728.632 18355143.050 10549252.879 10 0 60325 74700.00000 0 13207700.018 17328457.840 13310640.601 10 0 60325 75600.00000 0 11806811.221 16201975.356 15814203.014 10 0 60325 76500.00000 0 10077170.453 15036797.990 18011533.806 10 0 60325 77400.00000 0 8043725.264 13892146.762 19860162.864 10 0 60325 78300.00000 0 5743473.194 12822833.950 21324364.165 10 0 60325 79200.00000 0 3224175.857 11876940.330 22375834.608 10 0 60325 80100.00000 0 542628.752 11093792.940 22994231.938 10 0 60325 81000.00000 0 -2237442.852 10502326.679 23167562.487 10 0 60325 81900.00000 0 -5047776.535 10119897.261 22892411.975 10 0 60325 82800.00000 0 -7818156.736 9951594.419 22174015.205 10 0 60325 83700.00000 0 -10479085.162 9990083.850 21026163.086 10 0 60325 84600.00000 0 -12964428.935 10215984.748 19470948.074 10 0 60325 85500.00000 0 -15213938.321 10598767.791 17538351.827 99